Wind_Speed
89 83 81 82 77 76 70 70 71 72 66 68 65 63 61 59 59 56 51 50 49 45 41 36 34 30 29 24 21 19 14 10
90 88 85 81 84 79 76 74 72 69 66 65 65 64 64 62 61 59 56 53 52 50 47 43 39 35 34 32 30 22 22 14
94 92 87 83 82 83 83 78 77 71 71 67 66 64 63 63 63 63 60 57 52 51 50 48 45 43 40 39 36 35 29 22
95 92 91 88 83 82 83 83 83 77 71 73 70 67 66 65 62 62 60 59 50 47 52 51 49 49 47 43 42 40 35 33
101 97 94 92 88 84 84 85 86 83 80 80 77 73 70 68 66 64 61 60 41 52 36 38 50 51 52 50 47 45 44 40
104 103 96 94 91 89 86 85 86 90 84 85 83 80 78 75 72 68 66 64 63 63 58 48 37 47 54 55 55 51 48 47
103 102 100 96 94 93 90 86 86 84 87 89 89 87 85 82 79 76 72 70 67 65 62 60 57 51 44 51 56 56 55 53
100 101 101 99 96 95 94 91 89 87 86 88 89 90 89 87 85 82 79 76 74 71 68 65 63 60 57 51 51 54 55 56
99 100 103 103 102 101 98 97 95 95 89 89 89 89 90 89 88 86 84 82 80 78 75 72 69 67 64 61 60 54 52 53
98 102 104 105 105 106 106 104 102 98 97 94 93 92 91 90 89 88 86 85 83 82 81 78 76 73 71 69 66 61 56 52
94 101 101 103 105 107 108 106 105 102 101 99 97 96 95 94 92 90 88 87 85 85 83 82 81 80 79 77 73 68 64 59
89 95 99 99 104 105 106 107 108 107 106 104 103 103 97 98 99 97 95 93 91 89 87 86 84 83 82 82 80 76 72 67
81 90 96 98 103 105 108 107 108 108 109 110 109 110 104 107 104 103 102 99 97 95 93 92 90 88 86 85 85 83 80 76
74 78 87 95 101 105 105 109 112 112 111 111 113 115 113 113 111 109 108 107 105 102 100 98 96 95 92 90 89 88 86 84
72 75 78 83 91 100 104 108 110 112 115 117 117 117 118 119 118 117 115 113 112 111 109 106 103 101 100 97 94 93 91 88
75 75 77 79 82 85 91 99 104 109 115 118 119 121 122 122 122 122 122 121 120 118 117 116 113 110 107 106 103 99 97 95
71 74 78 80 81 83 86 90 94 99 105 111 117 120 123 125 126 126 125 125 125 125 125 124 123 121 118 115 113 109 106 103
65 67 70 73 76 81 86 89 91 93 96 99 103 109 115 120 125 128 129 128 128 130 129 129 129 127 127 124 122 118 115 113
57 61 64 67 70 73 76 81 86 91 94 96 100 102 106 110 114 119 124 128 130 131 131 131 131 132 132 131 129 127 124 123
Wind_Direction
216 217 218 219 221 220 222 226 228 230 230 233 233 235 236 237 239 241 242 243 248 250 249 254 251 245 240 250 252 263 261 262
217 218 218 218 220 219 220 223 227 229 227 232 234 234 236 236 237 238 239 241 245 248 250 250 252 250 239 247 249 246 248 253
216 217 218 218 220 220 221 222 226 227 229 228 231 232 234 236 238 238 239 241 243 244 246 244 243 244 242 244 246 246 242 248
216 218 218 218 220 221 222 222 226 227 228 231 231 232 232 234 236 238 240 241 239 242 244 243 242 241 241 240 240 245 246 245
216 218 218 219 220 221 222 223 226 226 226 230 231 231 232 234 236 237 238 240 231 243 230 235 240 239 240 240 238 238 241 241
217 217 219 220 220 221 222 223 224 226 226 230 233 234 233 233 234 235 236 237 237 240 239 230 231 239 239 237 238 236 239 240
219 219 220 222 222 222 223 224 226 227 227 229 231 233 234 235 235 235 236 236 237 238 240 241 241 236 235 236 237 236 234 237
219 220 222 224 224 224 225 226 227 227 229 229 231 234 235 236 237 237 237 238 239 240 239 239 241 241 239 241 240 235 233 235
219 220 221 223 224 225 225 226 227 227 228 229 231 233 235 237 237 237 238 239 239 240 241 241 241 242 243 242 245 245 237 234
221 221 223 223 225 226 226 227 227 227 228 230 231 233 235 237 237 239 238 238 240 240 240 240 240 241 243 244 245 245 245 242
227 225 224 226 227 228 229 230 231 229 230 230 232 232 234 237 239 239 240 240 240 241 241 241 240 240 241 243 244 244 245 245
227 227 228 228 229 230 231 232 233 232 233 233 233 233 233 236 237 239 240 240 240 240 241 241 240 241 241 242 243 243 242 241
229 229 229 230 231 232 232 232 234 235 235 235 235 235 233 235 236 238 239 240 240 241 240 241 241 240 240 241 242 243 242 242
231 231 231 232 233 233 234 234 234 235 236 237 238 238 235 236 235 235 237 239 240 240 241 240 241 242 240 239 240 240 241 241
234 233 233 234 234 236 237 237 236 237 237 238 238 239 239 238 237 237 236 237 238 240 241 241 242 241 241 240 239 240 240 239
238 236 235 234 235 237 239 240 239 240 240 240 240 241 241 241 241 241 240 238 238 239 240 242 241 241 241 241 241 239 240 241
241 240 239 238 236 236 237 239 240 241 242 242 242 243 244 244 244 243 242 242 242 241 240 241 242 241 240 241 240 240 240 239
244 244 244 243 241 240 239 240 241 242 243 244 244 244 246 246 246 246 245 245 244 244 243 243 242 242 243 241 241 240 240 240
245 245 245 245 245 244 243 242 242 242 244 245 245 246 247 247 247 247 248 248 247 246 245 244 244 244 243 243 241 240 239 239
Height
10807 10822 10834 10847 10862 10869 10881 10883 10891 10897 10917 10915 10928 10936 10944 10949 10954 10962 10969 10972 10976 10980 10985 10990 10995 10999 11003 11005 11006 11009 11009 11010
10794 10806 10818 10833 10840 10858 10865 10870 10878 10890 10898 10910 10916 10922 10929 10935 10942 10949 10957 10962 10967 10973 10978 10984 10988 10992 10996 10999 11001 11005 11005 11006
10773 10789 10806 10818 10829 10840 10849 10860 10864 10878 10884 10891 10899 10908 10915 10921 10928 10936 10946 10952 10959 10965 10970 10974 10980 10983 10987 10991 10995 10997 10999 11002
10762 10775 10787 10800 10813 10826 10838 10847 10850 10863 10877 10877 10885 10894 10901 10907 10915 10923 10933 10941 10949 10953 10959 10964 10969 10973 10978 10982 10985 10990 10993 10996
10742 10757 10770 10784 10798 10812 10819 10829 10839 10846 10857 10859 10868 10878 10887 10894 10902 10911 10920 10927 10942 10941 10951 10953 10957 10962 10967 10971 10976 10980 10983 10986
10723 10734 10756 10770 10782 10793 10803 10812 10823 10823 10846 10847 10853 10862 10871 10880 10887 10896 10907 10914 10923 10927 10935 10940 10945 10949 10954 10959 10964 10970 10974 10977
10713 10727 10739 10753 10766 10777 10787 10799 10805 10817 10824 10830 10836 10842 10852 10862 10871 10881 10890 10899 10907 10914 10922 10926 10933 10937 10940 10945 10951 10957 10961 10965
10696 10711 10724 10737 10749 10761 10770 10779 10791 10801 10808 10814 10821 10827 10835 10845 10854 10864 10874 10884 10892 10900 10907 10913 10919 10924 10930 10934 10938 10943 10948 10954
10679 10691 10700 10710 10722 10736 10748 10755 10769 10774 10793 10799 10804 10812 10818 10826 10836 10847 10856 10865 10874 10883 10891 10899 10905 10911 10917 10922 10925 10932 10939 10943
10662 10670 10677 10698 10703 10712 10721 10734 10743 10761 10767 10779 10788 10795 10802 10809 10818 10827 10836 10846 10855 10864 10873 10882 10889 10895 10901 10907 10913 10921 10927 10934
10647 10654 10671 10677 10685 10695 10704 10718 10729 10741 10747 10760 10768 10777 10785 10791 10799 10807 10817 10826 10835 10844 10853 10862 10871 10878 10883 10889 10897 10906 10913 10921
10626 10636 10647 10662 10665 10676 10686 10698 10707 10718 10726 10738 10747 10751 10773 10775 10777 10785 10793 10802 10812 10821 10830 10839 10849 10857 10865 10870 10879 10888 10896 10904
10608 10617 10627 10635 10644 10653 10662 10681 10682 10692 10703 10712 10719 10723 10748 10742 10757 10764 10771 10779 10787 10796 10806 10815 10824 10834 10844 10851 10859 10867 10877 10886
10592 10597 10607 10613 10621 10631 10643 10650 10656 10666 10675 10684 10690 10696 10714 10717 10730 10739 10747 10755 10763 10772 10780 10790 10800 10808 10819 10828 10837 10844 10855 10865
10574 10581 10587 10594 10602 10607 10618 10625 10633 10640 10646 10653 10661 10669 10677 10688 10698 10710 10721 10730 10738 10746 10754 10765 10774 10783 10791 10802 10813 10822 10831 10842
10554 10560 10567 10575 10581 10587 10593 10599 10606 10612 10619 10626 10633 10641 10646 10656 10667 10678 10690 10701 10712 10720 10727 10734 10746 10756 10765 10773 10786 10798 10807 10817
10533 10538 10545 10552 10560 10566 10570 10573 10577 10584 10590 10596 10605 10613 10618 10624 10632 10644 10655 10665 10676 10688 10697 10704 10711 10724 10734 10743 10755 10767 10778 10790
10513 10518 10522 10529 10536 10542 10547 10551 10556 10560 10565 10571 10577 10582 10586 10592 10598 10606 10617 10630 10641 10649 10659 10669 10678 10689 10699 10714 10723 10736 10748 10757
10496 10498 10502 10507 10511 10516 10520 10527 10532 10536 10540 10545 10548 10552 10555 10559 10565 10574 10582 10590 10601 10609 10619 10630 10641 10651 10661 10671 10687 10700 10715 10725